sat.trackr.live / text

‹ back to catalog

LEMUR-2-STAR-FOX

NORAD 62696 · 2025-009CR

PAYLOAD ACTIVE UNKNOWN

§ Identity

Operator
Country
US
Launch date
2025-01-14
Launch site
AFWTR
Launch vehicle
Mass (kg)
RCS (m²)

Purposes: earth_obs

External: N2YO · Heavens-Above · Gunter

§ Orbital elements

Epoch: 2026-05-25T04:19:48.224064Z

Period
95.87 min
Inclination
97.6904°
Eccentricity
0.0001964
Mean motion
15.02085933 rev/d
Perigee alt
559.1 km
Apogee alt
561.8 km
Semi-major
6,938.6 km
B*
6.0895e-4
RAAN
226.9653°
Arg perigee
178.8174°
Mean anomaly
181.3056°
Rev number
7,410

§ Raw data

LEMUR-2-STAR-FOX1 62696U 25009CR  26145.18041926  .00007942  00000+0  60895-3 0  99962 62696  97.6904 226.9653 0001964 178.8174 181.3056 15.02085933 74107

JSON: /api/v1/satellites/62696 · /tle

For live sub-satellite position, see the globe view (requires WebGL).

§ Visibility from observer

Set your observer location to see the next 7 days of passes ≥ 10°. The values pass through the URL so the page stays shareable.

No JS? Fill the form by hand. The geolocation button needs JavaScript.

§ Radio — SatNOGS DB

ModeDescriptionDownlinkUplink
FM Telemetry 400.580 MHz

1 transmitter · refreshed weekly from db.satnogs.org